owner,sensor,date,latitude,longitude,vertical_datum,direction_of_sea_water_velocity,sea_water_speed,upward_sea_water_velocity,qcFlag 
TABS,ioos:station:wmo:42050:1,2000-11-21T05:30:00Z,28.8425,-94.2433,2.0,315.0003157,1.470782105,-99999.0,'11133222,11111222,99999999' 
TABS,ioos:station:wmo:42050:1,2000-11-21T06:00:00Z,28.8425,-94.2433,2.0,320.2581126,1.157454103,-99999.0,'11133222,11111222,99999999' 
TABS,ioos:station:wmo:42050:1,2000-11-21T06:30:00Z,28.8425,-94.2433,2.0,323.130399,0.75,-99999.0,'11133222,11111222,99999999' 
TABS,ioos:station:wmo:42050:1,2000-11-21T07:00:00Z,28.8425,-94.2433,2.0,296.56541,0.670820393,-99999.0,'11133222,11111222,99999999' 
TABS,ioos:station:wmo:42050:1,2000-11-21T07:30:00Z,28.8425,-94.2433,2.0,315.0003157,0.424264069,-99999.0,'11133222,11111222,99999999' 
TABS,ioos:station:wmo:42050:1,2000-11-21T08:00:00Z,28.8425,-94.2433,2.0,296.56541,0.335410197,-99999.0,'11133222,11111222,99999999' 
TABS,ioos:station:wmo:42050:1,2000-11-21T08:30:00Z,28.8425,-94.2433,2.0,315.0003157,0.212132034,-99999.0,'11133222,11111222,99999999' 
TABS,ioos:station:wmo:42050:1,2000-11-21T09:00:00Z,28.8425,-94.2433,2.0,270.0004209,0.15,-99999.0,'11133222,11111222,99999999' 
TABS,ioos:station:wmo:42050:1,2000-11-21T09:30:00Z,28.8425,-94.2433,2.0,270.0004209,0.15,-99999.0,'11133222,11111222,99999999' 
TABS,ioos:station:wmo:42050:1,2000-11-21T10:00:00Z,28.8425,-94.2433,2.0,270.0004209,0.15,-99999.0,'11133222,11111222,99999999' 
TABS,ioos:station:wmo:42050:1,2000-11-21T10:30:00Z,28.8425,-94.2433,2.0,0.0,0.0,-99999.0,'11133222,11111222,99999999' 
TABS,ioos:station:wmo:42050:1,2000-11-21T11:00:00Z,28.8425,-94.2433,2.0,0.0,0.0,-99999.0,'11133222,11111222,99999999' 
TABS,ioos:station:wmo:42050:1,2000-11-21T11:30:00Z,28.8425,-94.2433,2.0,0.0,0.0,-99999.0,'11133222,11111222,99999999' 
TABS,ioos:station:wmo:42050:1,2000-11-21T12:00:00Z,28.8425,-94.2433,2.0,0.0,0.0,-99999.0,'11133222,11111222,99999999' 
TABS,ioos:station:wmo:42050:1,2000-11-21T12:30:00Z,28.8425,-94.2433,2.0,0.0,0.0,-99999.0,'11133222,11111222,99999999' 
TABS,ioos:station:wmo:42050:1,2000-11-21T13:00:00Z,28.8425,-94.2433,2.0,270.0004209,0.3,-99999.0,'11133222,11111222,99999999' 
TABS,ioos:station:wmo:42050:1,2000-11-21T13:30:00Z,28.8425,-94.2433,2.0,284.0366316,0.618465844,-99999.0,'11133222,11111222,99999999' 
TABS,ioos:station:wmo:42050:1,2000-11-21T14:00:00Z,28.8425,-94.2433,2.0,292.0682689,0.798498591,-99999.0,'11133222,11111222,99999999' 
TABS,ioos:station:wmo:42050:1,2000-11-21T14:30:00Z,28.8425,-94.2433,2.0,315.0003157,0.848528137,-99999.0,'11133222,11111222,99999999' 
TABS,ioos:station:wmo:42050:1,2000-11-21T15:00:00Z,28.8425,-94.2433,2.0,350.4335468,0.902551938,-99999.0,'11133222,11111222,99999999' 
TABS,ioos:station:wmo:42050:1,2000-11-21T15:30:00Z,28.8425,-94.2433,2.0,333.178292,0.997296345,-99999.0,'11133222,11111222,99999999' 
TABS,ioos:station:wmo:42050:1,2000-11-21T16:00:00Z,28.8425,-94.2433,2.0,343.9094317,1.08240473,-99999.0,'11133222,11111222,99999999' 
TABS,ioos:station:wmo:42050:1,2000-11-21T16:30:00Z,28.8425,-94.2433,2.0,341.3723908,0.939201789,-99999.0,'11133222,11111222,99999999' 
TABS,ioos:station:wmo:42050:1,2000-11-21T17:00:00Z,28.8425,-94.2433,2.0,0.000210459,1.19,-99999.0,'11133222,11111222,99999999' 
TABS,ioos:station:wmo:42050:1,2000-11-21T17:30:00Z,28.8425,-94.2433,2.0,331.0910944,1.530751449,-99999.0,'11133222,11111222,99999999' 
TABS,ioos:station:wmo:42050:1,2000-11-21T18:00:00Z,28.8425,-94.2433,2.0,331.0910944,1.530751449,-99999.0,'11133222,11111222,99999999' 
TABS,ioos:station:wmo:42050:1,2000-11-21T18:30:00Z,28.8425,-94.2433,2.0,341.3723908,0.939201789,-99999.0,'11133222,11111222,99999999' 
TABS,ioos:station:wmo:42050:1,2000-11-21T19:00:00Z,28.8425,-94.2433,2.0,315.0003157,1.046518036,-99999.0,'11133222,11111222,99999999' 
TABS,ioos:station:wmo:42050:1,2000-11-21T19:30:00Z,28.8425,-94.2433,2.0,328.6961602,0.866083137,-99999.0,'11133222,11111222,99999999' 
TABS,ioos:station:wmo:42050:1,2000-11-21T20:00:00Z,28.8425,-94.2433,2.0,328.6961602,0.866083137,-99999.0,'11133222,11111222,99999999' 
TABS,ioos:station:wmo:42050:1,2000-11-21T20:30:00Z,28.8425,-94.2433,2.0,315.0003157,0.848528137,-99999.0,'11133222,11111222,99999999' 
TABS,ioos:station:wmo:42050:1,2000-11-21T21:00:00Z,28.8425,-94.2433,2.0,343.9094317,1.08240473,-99999.0,'11133222,11111222,99999999' 
TABS,ioos:station:wmo:42050:1,2000-11-21T21:30:00Z,28.8425,-94.2433,2.0,350.4335468,0.902551938,-99999.0,'11133222,11111222,99999999' 
TABS,ioos:station:wmo:42050:1,2000-11-21T22:00:00Z,28.8425,-94.2433,2.0,343.9094317,1.08240473,-99999.0,'11133222,11111222,99999999' 
TABS,ioos:station:wmo:42050:1,2000-11-21T22:30:00Z,28.8425,-94.2433,2.0,336.6025013,1.133181362,-99999.0,'11133222,11111222,99999999' 
TABS,ioos:station:wmo:42050:1,2000-11-21T23:00:00Z,28.8425,-94.2433,2.0,350.4335468,0.902551938,-99999.0,'11133222,11111222,99999999' 
TABS,ioos:station:wmo:42050:1,2000-11-21T23:30:00Z,28.8425,-94.2433,2.0,345.9639998,0.618465844,-99999.0,'11133222,11111222,99999999' 
TABS,ioos:station:wmo:42050:1,2000-11-22T00:00:00Z,28.8425,-94.2433,2.0,350.4335468,0.902551938,-99999.0,'11133222,11111222,99999999' 
TABS,ioos:station:wmo:42050:1,2000-11-22T00:30:00Z,28.8425,-94.2433,2.0,0.000210459,0.74,-99999.0,'11133222,11111222,99999999' 
TABS,ioos:station:wmo:42050:1,2000-11-22T01:00:00Z,28.8425,-94.2433,2.0,351.7930132,1.050761629,-99999.0,'11133222,11111222,99999999' 
TABS,ioos:station:wmo:42050:1,2000-11-22T01:30:00Z,28.8425,-94.2433,2.0,0.000210459,0.6,-99999.0,'11133222,11111222,99999999' 
TABS,ioos:station:wmo:42050:1,2000-11-22T02:00:00Z,28.8425,-94.2433,2.0,7.184461051,1.199416525,-99999.0,'11133222,11111222,99999999' 
TABS,ioos:station:wmo:42050:1,2000-11-22T02:30:00Z,28.8425,-94.2433,2.0,0.000210459,0.89,-99999.0,'11133222,11111222,99999999' 
TABS,ioos:station:wmo:42050:1,2000-11-22T03:00:00Z,28.8425,-94.2433,2.0,0.000210459,0.45,-99999.0,'11133222,11111222,99999999' 
TABS,ioos:station:wmo:42050:1,2000-11-22T03:30:00Z,28.8425,-94.2433,2.0,11.45893601,0.755049667,-99999.0,'11133222,11111222,99999999' 
TABS,ioos:station:wmo:42050:1,2000-11-22T04:00:00Z,28.8425,-94.2433,2.0,11.38404631,1.519901313,-99999.0,'11133222,11111222,99999999' 
TABS,ioos:station:wmo:42050:1,2000-11-22T04:30:00Z,28.8425,-94.2433,2.0,14.0364211,0.618465844,-99999.0,'11133222,11111222,99999999' 
TABS,ioos:station:wmo:42050:1,2000-11-22T05:00:00Z,28.8425,-94.2433,2.0,0.000210459,0.3,-99999.0,'11133222,11111222,99999999' 
TABS,ioos:station:wmo:42050:1,2000-11-22T05:30:00Z,28.8425,-94.2433,2.0,341.5653047,0.474341649,-99999.0,'11133222,11111222,99999999' 
TABS,ioos:station:wmo:42050:1,2000-11-22T06:00:00Z,28.8425,-94.2433,2.0,345.9639998,0.618465844,-99999.0,'11133222,11111222,99999999' 
TABS,ioos:station:wmo:42050:1,2000-11-22T06:30:00Z,28.8425,-94.2433,2.0,0.000210459,1.19,-99999.0,'11133222,11111222,99999999' 
TABS,ioos:station:wmo:42050:1,2000-11-22T07:00:00Z,28.8425,-94.2433,2.0,0.000210459,1.19,-99999.0,'11133222,11111222,99999999' 
TABS,ioos:station:wmo:42050:1,2000-11-22T07:30:00Z,28.8425,-94.2433,2.0,31.30426075,0.866083137,-99999.0,'11133222,11111222,99999999' 
TABS,ioos:station:wmo:42050:1,2000-11-22T08:00:00Z,28.8425,-94.2433,2.0,16.09098918,1.08240473,-99999.0,'11133222,11111222,99999999' 
TABS,ioos:station:wmo:42050:1,2000-11-22T08:30:00Z,28.8425,-94.2433,2.0,18.62803008,0.939201789,-99999.0,'11133222,11111222,99999999' 
TABS,ioos:station:wmo:42050:1,2000-11-22T09:00:00Z,28.8425,-94.2433,2.0,18.62803008,0.939201789,-99999.0,'11133222,11111222,99999999' 
TABS,ioos:station:wmo:42050:1,2000-11-22T09:30:00Z,28.8425,-94.2433,2.0,14.14965346,1.227232659,-99999.0,'11133222,11111222,99999999' 
TABS,ioos:station:wmo:42050:1,2000-11-22T10:00:00Z,28.8425,-94.2433,2.0,0.000210459,0.45,-99999.0,'11133222,11111222,99999999' 
TABS,ioos:station:wmo:42050:1,2000-11-22T10:30:00Z,28.8425,-94.2433,2.0,14.0364211,0.618465844,-99999.0,'11133222,11111222,99999999' 
TABS,ioos:station:wmo:42050:1,2000-11-22T11:00:00Z,28.8425,-94.2433,2.0,18.43511617,0.474341649,-99999.0,'11133222,11111222,99999999' 
TABS,ioos:station:wmo:42050:1,2000-11-22T11:30:00Z,28.8425,-94.2433,2.0,24.28597882,1.799222054,-99999.0,'11133222,11111222,99999999' 
TABS,ioos:station:wmo:42050:1,2000-11-22T12:00:00Z,28.8425,-94.2433,2.0,21.93404421,1.606268969,-99999.0,'11133222,11111222,99999999' 
TABS,ioos:station:wmo:42050:1,2000-11-22T12:30:00Z,28.8425,-94.2433,2.0,24.12113717,1.468196172,-99999.0,'11133222,11111222,99999999' 
TABS,ioos:station:wmo:42050:1,2000-11-22T13:00:00Z,28.8425,-94.2433,2.0,41.60710209,1.792121648,-99999.0,'11133222,11111222,99999999' 
TABS,ioos:station:wmo:42050:1,2000-11-22T13:30:00Z,28.8425,-94.2433,2.0,29.65637506,2.405036382,-99999.0,'11133222,11111222,99999999' 
TABS,ioos:station:wmo:42050:1,2000-11-22T14:00:00Z,28.8425,-94.2433,2.0,30.85066223,1.735569071,-99999.0,'11133222,11111222,99999999' 
TABS,ioos:station:wmo:42050:1,2000-11-22T14:30:00Z,28.8425,-94.2433,2.0,32.38081245,1.941957775,-99999.0,'11133222,11111222,99999999' 
TABS,ioos:station:wmo:42050:1,2000-11-22T15:00:00Z,28.8425,-94.2433,2.0,26.43702155,1.999049774,-99999.0,'11133222,11111222,99999999' 
TABS,ioos:station:wmo:42050:1,2000-11-22T15:30:00Z,28.8425,-94.2433,2.0,34.91465251,1.817058062,-99999.0,'11133222,11111222,99999999' 
TABS,ioos:station:wmo:42050:1,2000-11-22T16:00:00Z,28.8425,-94.2433,2.0,41.96607268,2.003921156,-99999.0,'11133222,11111222,99999999' 
TABS,ioos:station:wmo:42050:1,2000-11-22T16:30:00Z,28.8425,-94.2433,2.0,33.61626938,2.14946505,-99999.0,'11133222,11111222,99999999' 
TABS,ioos:station:wmo:42050:1,2000-11-22T17:00:00Z,28.8425,-94.2433,2.0,26.45543788,2.334459252,-99999.0,'11133222,11111222,99999999' 
TABS,ioos:station:wmo:42050:1,2000-11-22T17:30:00Z,28.8425,-94.2433,2.0,36.79290801,1.486001346,-99999.0,'11133222,11111222,99999999' 
TABS,ioos:station:wmo:42050:1,2000-11-22T18:00:00Z,28.8425,-94.2433,2.0,28.90932651,1.530751449,-99999.0,'11133222,11111222,99999999' 
TABS,ioos:station:wmo:42050:1,2000-11-22T18:30:00Z,28.8425,-94.2433,2.0,30.85066223,1.735569071,-99999.0,'11133222,11111222,99999999' 
TABS,ioos:station:wmo:42050:1,2000-11-22T19:00:00Z,28.8425,-94.2433,2.0,20.71433686,1.272242115,-99999.0,'11133222,11111222,99999999' 
TABS,ioos:station:wmo:42050:1,2000-11-22T19:30:00Z,28.8425,-94.2433,2.0,18.62803008,0.939201789,-99999.0,'11133222,11111222,99999999' 
TABS,ioos:station:wmo:42050:1,2000-11-22T20:00:00Z,28.8425,-94.2433,2.0,45.00010523,0.848528137,-99999.0,'11133222,11111222,99999999' 
TABS,ioos:station:wmo:42050:1,2000-11-22T20:30:00Z,28.8425,-94.2433,2.0,29.98177972,1.200666482,-99999.0,'11133222,11111222,99999999' 
TABS,ioos:station:wmo:42050:1,2000-11-22T21:00:00Z,28.8425,-94.2433,2.0,18.62803008,0.939201789,-99999.0,'11133222,11111222,99999999' 
TABS,ioos:station:wmo:42050:1,2000-11-22T21:30:00Z,28.8425,-94.2433,2.0,11.38404631,1.519901313,-99999.0,'11133222,11111222,99999999' 
TABS,ioos:station:wmo:42050:1,2000-11-22T22:00:00Z,28.8425,-94.2433,2.0,18.62803008,0.939201789,-99999.0,'11133222,11111222,99999999' 
TABS,ioos:station:wmo:42050:1,2000-11-22T22:30:00Z,28.8425,-94.2433,2.0,16.09098918,1.08240473,-99999.0,'11133222,11111222,99999999' 
TABS,ioos:station:wmo:42050:1,2000-11-22T23:00:00Z,28.8425,-94.2433,2.0,26.75746606,1.332704018,-99999.0,'11133222,11111222,99999999' 
TABS,ioos:station:wmo:42050:1,2000-11-22T23:30:00Z,28.8425,-94.2433,2.0,12.61950324,1.373171512,-99999.0,'11133222,11111222,99999999' 
TABS,ioos:station:wmo:42050:1,2000-11-23T00:00:00Z,28.8425,-94.2433,2.0,7.184461051,1.199416525,-99999.0,'11133222,11111222,99999999' 
TABS,ioos:station:wmo:42050:1,2000-11-23T00:30:00Z,28.8425,-94.2433,2.0,14.14965346,1.227232659,-99999.0,'11133222,11111222,99999999' 
TABS,ioos:station:wmo:42050:1,2000-11-23T01:00:00Z,28.8425,-94.2433,2.0,0.000210459,1.04,-99999.0,'11133222,11111222,99999999' 
TABS,ioos:station:wmo:42050:1,2000-11-23T01:30:00Z,28.8425,-94.2433,2.0,0.000210459,0.74,-99999.0,'11133222,11111222,99999999' 
TABS,ioos:station:wmo:42050:1,2000-11-23T02:00:00Z,28.8425,-94.2433,2.0,18.62803008,0.939201789,-99999.0,'11133222,11111222,99999999' 
TABS,ioos:station:wmo:42050:1,2000-11-23T02:30:00Z,28.8425,-94.2433,2.0,29.98177972,1.200666482,-99999.0,'11133222,11111222,99999999' 
TABS,ioos:station:wmo:42050:1,2000-11-23T03:00:00Z,28.8425,-94.2433,2.0,22.06805842,0.798498591,-99999.0,'11133222,11111222,99999999' 
TABS,ioos:station:wmo:42050:1,2000-11-23T03:30:00Z,28.8425,-94.2433,2.0,40.5560095,1.368831619,-99999.0,'11133222,11111222,99999999' 
TABS,ioos:station:wmo:42050:1,2000-11-23T04:00:00Z,28.8425,-94.2433,2.0,9.566874077,0.902551938,-99999.0,'11133222,11111222,99999999' 
TABS,ioos:station:wmo:42050:1,2000-11-23T04:30:00Z,28.8425,-94.2433,2.0,9.566874077,0.902551938,-99999.0,'11133222,11111222,99999999' 
TABS,ioos:station:wmo:42050:1,2000-11-23T05:00:00Z,28.8425,-94.2433,2.0,36.87002189,0.75,-99999.0,'11133222,11111222,99999999' 
TABS,ioos:station:wmo:42050:1,2000-11-23T05:30:00Z,28.8425,-94.2433,2.0,0.000210459,0.3,-99999.0,'11133222,11111222,99999999' 
TABS,ioos:station:wmo:42050:1,2000-11-23T06:00:00Z,28.8425,-94.2433,2.0,63.43501094,0.670820393,-99999.0,'11133222,11111222,99999999' 
TABS,ioos:station:wmo:42050:1,2000-11-23T06:30:00Z,28.8425,-94.2433,2.0,63.43501094,0.670820393,-99999.0,'11133222,11111222,99999999' 
TABS,ioos:station:wmo:42050:1,2000-11-23T07:00:00Z,28.8425,-94.2433,2.0,33.6901992,0.540832691,-99999.0,'11133222,11111222,99999999' 
TABS,ioos:station:wmo:42050:1,2000-11-23T07:30:00Z,28.8425,-94.2433,2.0,26.56519952,0.335410197,-99999.0,'11133222,11111222,99999999' 
TABS,ioos:station:wmo:42050:1,2000-11-23T08:00:00Z,28.8425,-94.2433,2.0,56.31001126,0.540832691,-99999.0,'11133222,11111222,99999999' 
TABS,ioos:station:wmo:42050:1,2000-11-23T08:30:00Z,28.8425,-94.2433,2.0,56.31001126,0.540832691,-99999.0,'11133222,11111222,99999999' 
TABS,ioos:station:wmo:42050:1,2000-11-23T09:00:00Z,28.8425,-94.2433,2.0,56.31001126,0.540832691,-99999.0,'11133222,11111222,99999999' 
TABS,ioos:station:wmo:42050:1,2000-11-23T09:30:00Z,28.8425,-94.2433,2.0,71.56509429,0.474341649,-99999.0,'11133222,11111222,99999999' 
TABS,ioos:station:wmo:42050:1,2000-11-23T10:00:00Z,28.8425,-94.2433,2.0,56.31001126,0.540832691,-99999.0,'11133222,11111222,99999999' 
TABS,ioos:station:wmo:42050:1,2000-11-23T10:30:00Z,28.8425,-94.2433,2.0,58.69594971,0.866083137,-99999.0,'11133222,11111222,99999999' 
TABS,ioos:station:wmo:42050:1,2000-11-23T11:00:00Z,28.8425,-94.2433,2.0,56.31001126,0.540832691,-99999.0,'11133222,11111222,99999999' 
TABS,ioos:station:wmo:42050:1,2000-11-23T11:30:00Z,28.8425,-94.2433,2.0,45.00010523,0.636396103,-99999.0,'11133222,11111222,99999999' 
TABS,ioos:station:wmo:42050:1,2000-11-23T12:00:00Z,28.8425,-94.2433,2.0,58.69594971,0.866083137,-99999.0,'11133222,11111222,99999999' 
TABS,ioos:station:wmo:42050:1,2000-11-23T12:30:00Z,28.8425,-94.2433,2.0,45.00010523,0.848528137,-99999.0,'11133222,11111222,99999999' 
TABS,ioos:station:wmo:42050:1,2000-11-23T13:00:00Z,28.8425,-94.2433,2.0,0.000210459,0.3,-99999.0,'11133222,11111222,99999999' 
TABS,ioos:station:wmo:42050:1,2000-11-23T13:30:00Z,28.8425,-94.2433,2.0,71.56509429,0.474341649,-99999.0,'11133222,11111222,99999999' 
TABS,ioos:station:wmo:42050:1,2000-11-23T14:00:00Z,28.8425,-94.2433,2.0,33.6901992,0.540832691,-99999.0,'11133222,11111222,99999999' 
TABS,ioos:station:wmo:42050:1,2000-11-23T14:30:00Z,28.8425,-94.2433,2.0,56.31001126,0.540832691,-99999.0,'11133222,11111222,99999999' 
TABS,ioos:station:wmo:42050:1,2000-11-23T15:00:00Z,28.8425,-94.2433,2.0,63.43501094,0.335410197,-99999.0,'11133222,11111222,99999999' 
TABS,ioos:station:wmo:42050:1,2000-11-23T15:30:00Z,28.8425,-94.2433,2.0,56.31001126,0.540832691,-99999.0,'11133222,11111222,99999999' 
TABS,ioos:station:wmo:42050:1,2000-11-23T16:00:00Z,28.8425,-94.2433,2.0,75.96378935,0.618465844,-99999.0,'11133222,11111222,99999999' 
TABS,ioos:station:wmo:42050:1,2000-11-23T16:30:00Z,28.8425,-94.2433,2.0,45.00010523,0.212132034,-99999.0,'11133222,11111222,99999999' 
TABS,ioos:station:wmo:42050:1,2000-11-23T17:00:00Z,28.8425,-94.2433,2.0,0.000210459,0.15,-99999.0,'11133222,11111222,99999999' 
TABS,ioos:station:wmo:42050:1,2000-11-23T17:30:00Z,28.8425,-94.2433,2.0,71.56509429,0.474341649,-99999.0,'11133222,11111222,99999999' 
TABS,ioos:station:wmo:42050:1,2000-11-23T18:00:00Z,28.8425,-94.2433,2.0,90.0,0.15,-99999.0,'11133222,11111222,99999999' 
TABS,ioos:station:wmo:42050:1,2000-11-23T18:30:00Z,28.8425,-94.2433,2.0,90.0,0.3,-99999.0,'11133222,11111222,99999999' 
TABS,ioos:station:wmo:42050:1,2000-11-23T19:00:00Z,28.8425,-94.2433,2.0,71.56509429,0.474341649,-99999.0,'11133222,11111222,99999999' 
TABS,ioos:station:wmo:42050:1,2000-11-23T19:30:00Z,28.8425,-94.2433,2.0,90.0,0.74,-99999.0,'11133222,11111222,99999999' 
TABS,ioos:station:wmo:42050:1,2000-11-23T20:00:00Z,28.8425,-94.2433,2.0,36.87002189,0.75,-99999.0,'11133222,11111222,99999999' 
TABS,ioos:station:wmo:42050:1,2000-11-23T20:30:00Z,28.8425,-94.2433,2.0,71.56509429,0.474341649,-99999.0,'11133222,11111222,99999999' 
TABS,ioos:station:wmo:42050:1,2000-11-23T21:00:00Z,28.8425,-94.2433,2.0,78.54127445,0.755049667,-99999.0,'11133222,11111222,99999999' 
TABS,ioos:station:wmo:42050:1,2000-11-23T21:30:00Z,28.8425,-94.2433,2.0,56.31001126,0.540832691,-99999.0,'11133222,11111222,99999999' 
TABS,ioos:station:wmo:42050:1,2000-11-23T22:00:00Z,28.8425,-94.2433,2.0,90.0,0.6,-99999.0,'11133222,11111222,99999999' 
TABS,ioos:station:wmo:42050:1,2000-11-23T22:30:00Z,28.8425,-94.2433,2.0,71.56509429,0.474341649,-99999.0,'11133222,11111222,99999999' 
TABS,ioos:station:wmo:42050:1,2000-11-23T23:00:00Z,28.8425,-94.2433,2.0,53.13018857,0.75,-99999.0,'11133222,11111222,99999999' 
TABS,ioos:station:wmo:42050:1,2000-11-23T23:30:00Z,28.8425,-94.2433,2.0,75.96378935,0.618465844,-99999.0,'11133222,11111222,99999999' 
TABS,ioos:station:wmo:42050:1,2000-11-24T00:00:00Z,28.8425,-94.2433,2.0,63.43501094,0.670820393,-99999.0,'11133222,11111222,99999999' 
TABS,ioos:station:wmo:42050:1,2000-11-24T00:30:00Z,28.8425,-94.2433,2.0,75.96378935,0.618465844,-99999.0,'11133222,11111222,99999999' 
TABS,ioos:station:wmo:42050:1,2000-11-24T01:00:00Z,28.8425,-94.2433,2.0,66.6022908,1.133181362,-99999.0,'11133222,11111222,99999999' 
TABS,ioos:station:wmo:42050:1,2000-11-24T01:30:00Z,28.8425,-94.2433,2.0,36.87002189,0.75,-99999.0,'11133222,11111222,99999999' 
TABS,ioos:station:wmo:42050:1,2000-11-24T02:00:00Z,28.8425,-94.2433,2.0,63.43501094,0.670820393,-99999.0,'11133222,11111222,99999999' 
TABS,ioos:station:wmo:42050:1,2000-11-24T02:30:00Z,28.8425,-94.2433,2.0,71.56509429,0.474341649,-99999.0,'11133222,11111222,99999999' 
TABS,ioos:station:wmo:42050:1,2000-11-24T03:00:00Z,28.8425,-94.2433,2.0,75.96378935,0.618465844,-99999.0,'11133222,11111222,99999999' 
TABS,ioos:station:wmo:42050:1,2000-11-24T03:30:00Z,28.8425,-94.2433,2.0,90.0,0.3,-99999.0,'11133222,11111222,99999999' 
TABS,ioos:station:wmo:42050:1,2000-11-24T04:00:00Z,28.8425,-94.2433,2.0,81.79280278,1.050761629,-99999.0,'11133222,11111222,99999999' 
TABS,ioos:station:wmo:42050:1,2000-11-24T04:30:00Z,28.8425,-94.2433,2.0,90.0,0.45,-99999.0,'11133222,11111222,99999999' 
TABS,ioos:station:wmo:42050:1,2000-11-24T05:00:00Z,28.8425,-94.2433,2.0,90.0,0.74,-99999.0,'11133222,11111222,99999999' 
TABS,ioos:station:wmo:42050:1,2000-11-24T05:30:00Z,28.8425,-94.2433,2.0,67.93215204,0.798498591,-99999.0,'11133222,11111222,99999999' 
TABS,ioos:station:wmo:42050:1,2000-11-24T06:00:00Z,28.8425,-94.2433,2.0,90.0,0.45,-99999.0,'11133222,11111222,99999999' 
TABS,ioos:station:wmo:42050:1,2000-11-24T06:30:00Z,28.8425,-94.2433,2.0,78.54127445,0.755049667,-99999.0,'11133222,11111222,99999999' 
TABS,ioos:station:wmo:42050:1,2000-11-24T07:00:00Z,28.8425,-94.2433,2.0,81.79280278,1.050761629,-99999.0,'11133222,11111222,99999999' 
TABS,ioos:station:wmo:42050:1,2000-11-24T07:30:00Z,28.8425,-94.2433,2.0,90.0,0.89,-99999.0,'11133222,11111222,99999999' 
TABS,ioos:station:wmo:42050:1,2000-11-24T08:00:00Z,28.8425,-94.2433,2.0,71.37218038,0.939201789,-99999.0,'11133222,11111222,99999999' 
TABS,ioos:station:wmo:42050:1,2000-11-24T08:30:00Z,28.8425,-94.2433,2.0,90.0,1.04,-99999.0,'11133222,11111222,99999999' 
TABS,ioos:station:wmo:42050:1,2000-11-24T09:00:00Z,28.8425,-94.2433,2.0,90.0,0.45,-99999.0,'11133222,11111222,99999999' 
TABS,ioos:station:wmo:42050:1,2000-11-24T09:30:00Z,28.8425,-94.2433,2.0,90.0,0.74,-99999.0,'11133222,11111222,99999999' 
TABS,ioos:station:wmo:42050:1,2000-11-24T10:00:00Z,28.8425,-94.2433,2.0,108.4349057,0.474341649,-99999.0,'11133222,11111222,99999999' 
TABS,ioos:station:wmo:42050:1,2000-11-24T10:30:00Z,28.8425,-94.2433,2.0,90.0,0.6,-99999.0,'11133222,11111222,99999999' 
TABS,ioos:station:wmo:42050:1,2000-11-24T11:00:00Z,28.8425,-94.2433,2.0,179.9997895,0.3,-99999.0,'11133222,11111222,99999999' 
TABS,ioos:station:wmo:42050:1,2000-11-24T11:30:00Z,28.8425,-94.2433,2.0,134.9998948,0.212132034,-99999.0,'11133222,11111222,99999999' 
TABS,ioos:station:wmo:42050:1,2000-11-24T12:00:00Z,28.8425,-94.2433,2.0,168.541064,0.755049667,-99999.0,'11133222,11111222,99999999' 
TABS,ioos:station:wmo:42050:1,2000-11-24T12:30:00Z,28.8425,-94.2433,2.0,206.821708,0.997296345,-99999.0,'11133222,11111222,99999999' 
TABS,ioos:station:wmo:42050:1,2000-11-24T13:00:00Z,28.8425,-94.2433,2.0,216.869601,0.75,-99999.0,'11133222,11111222,99999999' 
TABS,ioos:station:wmo:42050:1,2000-11-24T13:30:00Z,28.8425,-94.2433,2.0,270.0004209,0.15,-99999.0,'11133222,11111222,99999999' 
TABS,ioos:station:wmo:42050:1,2000-11-24T14:00:00Z,28.8425,-94.2433,2.0,224.9996843,0.424264069,-99999.0,'11133222,11111222,99999999' 
TABS,ioos:station:wmo:42050:1,2000-11-24T14:30:00Z,28.8425,-94.2433,2.0,179.9997895,0.3,-99999.0,'11133222,11111222,99999999' 
TABS,ioos:station:wmo:42050:1,2000-11-24T15:00:00Z,28.8425,-94.2433,2.0,179.9997895,0.6,-99999.0,'11133222,11111222,99999999' 
TABS,ioos:station:wmo:42050:1,2000-11-24T15:30:00Z,28.8425,-94.2433,2.0,153.4348005,0.335410197,-99999.0,'11133222,11111222,99999999' 
TABS,ioos:station:wmo:42050:1,2000-11-24T16:00:00Z,28.8425,-94.2433,2.0,179.9997895,0.74,-99999.0,'11133222,11111222,99999999' 
TABS,ioos:station:wmo:42050:1,2000-11-24T16:30:00Z,28.8425,-94.2433,2.0,191.4585151,0.755049667,-99999.0,'11133222,11111222,99999999' 
TABS,ioos:station:wmo:42050:1,2000-11-24T17:00:00Z,28.8425,-94.2433,2.0,179.9997895,0.6,-99999.0,'11133222,11111222,99999999' 
TABS,ioos:station:wmo:42050:1,2000-11-24T17:30:00Z,28.8425,-94.2433,2.0,179.9997895,0.15,-99999.0,'11133222,11111222,99999999' 
TABS,ioos:station:wmo:42050:1,2000-11-24T18:00:00Z,28.8425,-94.2433,2.0,179.9997895,0.3,-99999.0,'11133222,11111222,99999999' 
TABS,ioos:station:wmo:42050:1,2000-11-24T18:30:00Z,28.8425,-94.2433,2.0,179.9997895,0.45,-99999.0,'11133222,11111222,99999999' 
TABS,ioos:station:wmo:42050:1,2000-11-24T19:00:00Z,28.8425,-94.2433,2.0,179.9997895,0.45,-99999.0,'11133222,11111222,99999999' 
TABS,ioos:station:wmo:42050:1,2000-11-24T19:30:00Z,28.8425,-94.2433,2.0,179.9997895,0.6,-99999.0,'11133222,11111222,99999999' 
TABS,ioos:station:wmo:42050:1,2000-11-24T20:00:00Z,28.8425,-94.2433,2.0,165.9635789,0.618465844,-99999.0,'11133222,11111222,99999999' 
TABS,ioos:station:wmo:42050:1,2000-11-24T20:30:00Z,28.8425,-94.2433,2.0,179.9997895,0.3,-99999.0,'11133222,11111222,99999999' 
TABS,ioos:station:wmo:42050:1,2000-11-24T21:00:00Z,28.8425,-94.2433,2.0,179.9997895,0.6,-99999.0,'11133222,11111222,99999999' 
TABS,ioos:station:wmo:42050:1,2000-11-24T21:30:00Z,28.8425,-94.2433,2.0,179.9997895,0.6,-99999.0,'11133222,11111222,99999999' 
TABS,ioos:station:wmo:42050:1,2000-11-24T22:00:00Z,28.8425,-94.2433,2.0,179.9997895,0.74,-99999.0,'11133222,11111222,99999999' 
TABS,ioos:station:wmo:42050:1,2000-11-24T22:30:00Z,28.8425,-94.2433,2.0,179.9997895,0.74,-99999.0,'11133222,11111222,99999999' 
TABS,ioos:station:wmo:42050:1,2000-11-24T23:00:00Z,28.8425,-94.2433,2.0,179.9997895,0.45,-99999.0,'11133222,11111222,99999999' 
TABS,ioos:station:wmo:42050:1,2000-11-24T23:30:00Z,28.8425,-94.2433,2.0,179.9997895,0.6,-99999.0,'11133222,11111222,99999999' 